Grand Junction, CO

6:59 AM MDT on August 21, 2017 (GMT -0600)
Walker

Weather History for KGJT - May, 2013

Change the Weather History Date:

Tuesday, May 28, 2013

  Actual Average Record
Temperature  
Mean Temperature 65 °F 66 °F  
Max Temperature 80 °F 81 °F 96 °F (2000)
Min Temperature 49 °F 50 °F 35 °F (1908)
Degree Days  
Heating Degree Days 0 2  
Month to date heating degree days 146 148  
Since 1 July heating degree days 6037 5582  
Cooling Degree Days 0 3  
Month to date cooling degree days 55 38  
Year to date cooling degree days 55 41  
Growing Degree Days 14 (Base 50)    
Moisture  
Dew Point 28 °F    
Average Humidity 50    
Maximum Humidity 86    
Minimum Humidity 13    
Precipitation  
Precipitation 0.18 in 0.02 in 0.56 in (1924)
Month to date precipitation 0.87 0.81  
Year to date precipitation 3.41 3.76  
Snow  
Snow 0.00 in 0.00 in 0.00 in (2016)
Month to date snowfall T 0.1  
Since 1 July snowfall 24.6 19.1  
Snow Depth 0.00 in    
Sea Level Pressure  
Sea Level Pressure 29.56 in    
Wind  
Wind Speed 16 mph (SE)    
Max Wind Speed 36 mph    
Max Gust Speed 43 mph    
Visibility 9 miles    
Events Rain    
T = Trace of Precipitation, MM = Missing Value Source: NWS Daily Summary

Daily Weather History Graph

Daily Weather History Graph

Search for Another Location

Airport or City:

Trip Planner

Search our weather history database for the weather conditions in past years. The results will help you decide how hot, cold, wet, or windy it might be!

Date:

Astronomy

May. 28, 2013 Rise Set
Actual Time 5:51 AM MDT 8:31 PM MDT
Civil Twilight 5:20 AM MDT 9:02 PM MDT
Nautical Twilight 4:41 AM MDT 9:42 PM MDT
Astronomical Twilight 3:57 AM MDT 10:26 PM MDT
Moon 11:58 PM MDT (5/28) 9:42 AM MDT (5/28)
Length of Visible Light 15h 42m
Length of Day
14h 39m
Waning Gibbous, 82% of the Moon is Illuminated
May 28
Waning Gibbous
May 31
Last Quarter
Jun 8
New
Jun 16
First Quarter
Jun 23
Full

Hourly Weather History & Observations

Time (MDT) Temp. Dew Point Humidity Pressure Visibility Wind Dir Wind Speed Gust Speed Precip Events Conditions
12:53 AM 60.1 °F 19.0 °F 20% 29.61 in 10.0 mi East 5.8 mph - N/A   Clear
1:53 AM 57.9 °F 19.9 °F 23% 29.58 in 10.0 mi ESE 8.1 mph - N/A   Clear
2:53 AM 61.0 °F 19.9 °F 21% 29.55 in 10.0 mi ESE 15.0 mph - N/A   Clear
3:53 AM 57.9 °F 23.0 °F 26% 29.55 in 10.0 mi East 11.5 mph - N/A   Clear
4:53 AM 57.9 °F 23.0 °F 26% 29.55 in 10.0 mi ESE 16.1 mph - N/A   Clear
5:53 AM 57.9 °F 23.0 °F 26% 29.55 in 10.0 mi East 13.8 mph - N/A   Clear
6:53 AM 60.1 °F 23.0 °F 24% 29.54 in 10.0 mi East 17.3 mph - N/A   Mostly Cloudy
7:53 AM 63.0 °F 23.0 °F 22% 29.55 in 10.0 mi ESE 12.7 mph - N/A   Clear
8:53 AM 64.0 °F 23.0 °F 21% 29.58 in 10.0 mi ESE 13.8 mph - N/A   Clear
9:53 AM 66.0 °F 23.0 °F 20% 29.58 in 10.0 mi SE 13.8 mph - N/A   Scattered Clouds
10:53 AM 73.0 °F 24.1 °F 16% 29.54 in 10.0 mi SE 13.8 mph - N/A   Clear
11:53 AM 75.9 °F 21.9 °F 13% 29.50 in 10.0 mi SSE 10.4 mph 17.3 mph N/A   Clear
12:53 PM 75.9 °F 24.1 °F 15% 29.49 in 10.0 mi SW 4.6 mph 17.3 mph N/A   Clear
1:53 PM 75.9 °F 26.1 °F 16% 29.49 in 10.0 mi SW 18.4 mph 24.2 mph N/A   Scattered Clouds
2:53 PM 77.0 °F 24.1 °F 14% 29.45 in 10.0 mi West 11.5 mph 17.3 mph N/A   Clear
3:53 PM 79.0 °F 24.1 °F 13% 29.43 in 10.0 mi WSW 18.4 mph 27.6 mph N/A   Scattered Clouds
4:53 PM 73.9 °F 26.1 °F 17% 29.45 in 10.0 mi SW 29.9 mph 42.6 mph N/A   Scattered Clouds
5:53 PM 75.0 °F 24.1 °F 15% 29.44 in 10.0 mi WSW 23.0 mph 28.8 mph N/A   Partly Cloudy
6:23 PM 71.6 °F 30.2 °F 22% 29.64 in 10.0 mi WNW 18.4 mph 33.4 mph N/A   Scattered Clouds
6:53 PM 68.0 °F 33.1 °F 27% 29.49 in 10.0 mi West 20.7 mph 25.3 mph N/A   Partly Cloudy
7:53 PM 66.0 °F 35.1 °F 32% 29.50 in 10.0 mi NW 19.6 mph 27.6 mph N/A   Clear
8:00 PM 66.2 °F 35.6 °F 32% 29.68 in 10.0 mi NW 16.1 mph - N/A   Clear
8:53 PM 64.0 °F 36.0 °F 35% 29.55 in 10.0 mi WNW 17.3 mph - N/A   Clear
9:53 PM 57.0 °F 42.1 °F 57% 29.65 in 10.0 mi NW 28.8 mph 36.8 mph N/A   Overcast
10:50 PM 50.0 °F 48.2 °F 94% 29.82 in 5.0 mi NNE 13.8 mph - 0.04 in Rain Rain
10:53 PM 50.0 °F 48.0 °F 93% 29.67 in 4.0 mi NNE 11.5 mph - 0.05 in Rain Rain
11:53 PM 48.9 °F 45.0 °F 86% 29.65 in 5.0 mi East 16.1 mph 21.9 mph 0.13 in Rain Light Rain